Погода в Добром Сот

Россия / Рязанская область     54°18′19″N   40°13′03″E
темп.,
°C
ветер,
м/с
пор.,
м/с
влажн.,
%
обл.,
%
осадки,
мм/ч
давл.,
гПа
погр.,
м
9 марта, вт
вт900:00−14сз23930 0.0 100921
03:00−16сз34940 0.0 101135
06:00−17сз459737 0.0 101282
09:00−14ссз479556 0.0 1014255
12:00−11сз469195 0.0 1015481
15:00−10сз578898 0.1 1015655
18:00−13зсз489399 0.0 1017154
21:00−15сз489697 0.1 1019141
10 марта, ср
ср1000:00−18сз469897 0.1 1020110
03:00−22сз479881 0.1 102297
06:00−25сз479827 0.0 1024110
09:00−23ссз479525 0.0 1026245
12:00−19сз469161 0.0 1026420
15:00−16сз478979 0.0 1027598
18:00−19ссз3494100 0.0 102740
21:00−22с339580 0.0 103022
11 марта, чт
чт1100:00−24с23940 0.0 103120
03:00−25ссз23940 0.0 103220
06:00−26сз22920 0.0 103320
09:00−22зсз23900 0.0 1033113
12:00−16зсз34820 0.0 1033268
15:00−14зсз35840 0.0 1032301
18:00−17з33890 0.0 103225
21:00−20з23870 0.0 103320
12 марта, пт
пт1200:00−20з22860 0.0 103320
03:00−21юз23820 0.0 103320
06:00−22ююз33760 0.0 103420
09:00−18ююз36780 0.0 1033169
12:00−13ю47800 0.0 1033310
15:00−10ю59780 0.0 1032453
18:00−13ююв49890 0.0 1030152
21:00−15ю5128415 0.0 1030232
13 марта, сб
сб1300:00−15ю61384100 0.0 1029266
03:00−13ю71486100 0.0 1028341
06:00−12ю71584100 0.0 1026429
09:00−9ю91679100 0.0 1025676
12:00−7ю91582100 0.1 1024932
15:00−5ююз91588100 0.6 1023981
18:00−5ююз81494100 0.6 1021781
21:00−5ююз7149399 1.0 1021569